Find Your NWS Forecast:
  Current Conditions
68.3°F  Colder 1.5°F than last hour.
Feels like 68°F
Comfy
 
High Today of: 76.2°F @ 00:00
Low Today of: 68.1°F @ 04:49

Humidity: 70 % Increased 2.0% since last hour.
Dew Point: 58.1°F Decreased 0.6°F since last hour.
Barometer: 29.856 inHg  
Wind:  SE @ 0.0
Gusting to: 1.0 mph
 
Rain Today: 0.00 in
Rain Yesterday: 0.00 in
This Month: 0.00 in
73 Days without rain
 
Solar: 0 W/m2
UV: 0.0    None 
 
  Sun / Moon
Sunrise: 6:29am
Sunset: 7:53pm
Moonrise: 8:29am
Moonset: 9:12pm
 
  California Extremes
High
110°F at Palm Springs Rgnl, CA
110°F at Thermal, CA
Low
40°F at Mammoth/June Lakes, CA
Precip
0.40in at Alturas, CA
 
 


Northern California's - Conditions
Weather Forecast Office

Hourly Weather Roundup (Updated Hourly) for Sacramento, CA

To Select Another NWS Office Choose from List

Select Forecast Office:  
000
ASUS46 KSTO 231115
RWRCA

NORTHERN AND CENTRAL CA REGIONAL WEATHER ROUNDUP
NATIONAL WEATHER SERVICE SACRAMENTO CA
400 AM PDT WED AUG 23 2017

NOTE: FAIR INDICATES FEW OR NO CLOUDS BELOW 12,000 FEET WITH NO
SIGNIFICANT WEATHER AND/OR OBSTRUCTIONS TO VISIBILITY.

CAZ001-003-231200-
NORTHWEST AREA

CITY           SKY/WX    TMP DP  RH WIND       PRES   REMARKS
CRESCENT CITY  FOG       52  52 100 S6        30.01S VSB 1/4
UKIAH          CLEAR     60  52  74 SE3       29.97S
$$

CAZ006-505>513-231200-
BAY AREA

CITY           SKY/WX    TMP DP  RH WIND       PRES   REMARKS
SANTA ROSA     CLOUDY    56  55  97 CALM      29.97F
SAN RAFAEL     N/A       59  MM  MM MISG
NAPA           CLEAR     56  54  93 W6        29.96F
CONCORD        CLEAR     62  55  77 N3        29.95F
OAKLAND CITY   N/A      MM  MM  MM MISG
OAKLAND        CLOUDY    60  58  92 W8        29.98F
SAN FRAN CITY  N/A       58  MM  96 MISG
SAN FRAN ARPT  MOCLDY    59  55  87 W9        29.98S
LIVERMORE      CLEAR     59  56  89 NW8       29.96F
HAYWARD        CLOUDY    61  55  81 N3        29.98F
REDWOOD CITY   N/A       60  MM  86 MISG
MOFFETT ARPT   CLOUDY    63  60  90 NE5       29.98F
SAN JOSE ARPT  CLOUDY    63  59  87 CALM      29.98F
$$
CAZ034-037-514>518-231200-
CENTRAL COAST

CITY           SKY/WX    TMP DP  RH WIND       PRES   REMARKS
WATSONVILLE    CLOUDY    60  58  92 CALM      30.00F
SALINAS        CLOUDY    59  58  96 VRB3      29.99F
MONTEREY       CLOUDY    59  58  96 SW5       30.00F
SAN LUIS OBISP CLOUDY    59  57  93 NW5       29.98F
SANTA MARIA    CLOUDY    58  58 100 W6        29.99S FOG
$$
CAZ015-016-231200-
NORTHERN SACRAMENTO VALLEY

CITY           SKY/WX    TMP DP  RH WIND       PRES   REMARKS
REDDING        CLEAR     71  61  70 CALM      29.92S
RED BLUFF      CLEAR     72  61  68 N3        29.92F
OROVILLE       CLEAR     73  59  61 S5        29.93S
$$
CAZ016>018-231200-
SOUTHERN SACRAMENTO VALLEY

CITY           SKY/WX    TMP DP  RH WIND       PRES   REMARKS
AUBURN         CLEAR     73  73 100 E7        29.98F
BEALE AFB      CLEAR     68  58  69 S3        29.90S
LINCOLN        FAIR      68  52  56 S5        29.91S
MARYSVILLE     CLEAR     67  57  70 SW3       29.92S
SAC INTL ARPT  PTCLDY    65  57  75 S7        29.91S
MATHER AIRPORT PTCLDY   N/A N/A N/A SE3       29.91F
DOWNTOWN SAC   N/A       66  MM  MM MISG
SAC EXEC ARPT  CLEAR     63  58  83 S3        29.92S
VACAVILLE      CLEAR     64  55  72 CALM      29.92R
TRAVIS AFB     CLEAR     60  55  81 SW18      29.89S
$$
CAZ019>021-231200-
SAN JOAQUIN VALLEY

CITY           SKY/WX    TMP DP  RH WIND       PRES   REMARKS
STOCKTON       CLEAR     63  55  75 N5        29.91S
MODESTO        CLEAR     69  54  58 CALM      29.90F
MERCED         CLEAR     70  50  49 W6        29.88F
LEMOORE        CLEAR     75  54  47 NW13      29.90F
FRESNO         CLEAR     72  57  59 W8        29.89F
HANFORD        CLEAR     74  58  57 NW13      29.90F
PORTERVILLE      N/A     68  57  68 S5        29.92S
BAKERSFIELD    CLEAR     78  57  48 CALM      29.91F
$$
CAZ011-012-071-231200-
NORTHERN MOUNTAINS

CITY           SKY/WX    TMP DP  RH WIND       PRES   REMARKS
YREKA          PTCLDY    66  54  65 CALM      30.05F
MOUNT SHASTA   PTCLDY    57  55  93 CALM      30.09F FOG
ALTURAS        CLOUDY    61  57  87 CALM      30.16F
$$
CAZ011-012-071-231200-
SIERRA NEVADA MTNS

CITY           SKY/WX    TMP DP  RH WIND       PRES   REMARKS
BLUE CANYON    CLEAR     67  48  50 NE3       30.22F
TRUCKEE          N/A     41  41 100 CALM      30.29S FOG
TAHOE VLY ARPT PTCLDY    46  44  93 S5        30.28F
MAMMOTH LAKES  FAIR      47  39  73 CALM      30.35F
$$

Previous Hourly Weather Roundup (Updated Hourly)s may be found at
NWS Sacramento, CA (CA) Office Hourly Weather Roundup (Updated Hourly)s.
(Click 'Previous Version' there to view past versions successively.
Some may differ only in time posted.)

Products Courtesy of NOAA-NWS
NWS Information Parsing Script by Ken True at Saratoga Weather - WFO and Products Scripts by SE Lincoln Weather.
and by Tom at My Mishawaka Weather.